Home   Weather   Rancho Cucamonga   Past weeks

Flag for USA Past Weather in Rancho Cucamonga, California, USA — Yesterday and Last 2 Weeks

Now
76 °F

Sunny.


Feels Like: 78 °F
Forecast: 63 / 89 °F
Wind: 5 mph from Southwest

Location: Ontario International Airport

Current Time: Aug 19, 2017 at 11:51:20 am

Latest Report: Aug 19, 2017 at 10:53 am


Visibility: 9 mi

Pressure: 29.93 "Hg

Humidity: 52%

Dew Point: 57 °F

Location of Rancho CucamongaLocation

Past Weather in Rancho Cucamonga — Graph

°F

Rancho Cucamonga Temperature Yesterday

Maximum temperature yesterday: 88 °F (at 1:53 pm)
Minimum temperature yesterday: 64 °F (at 4:53 am)
Average temperature yesterday: 75 °F

High & Low Weather Summary for the Past Weeks

 TemperatureHumidityPressure
High97 °F (Aug 8, 2:53 pm)97% (Aug 13, 6:53 am)30.00 "Hg (Aug 13, 6:53 am)
Low61 °F (Aug 13, 5:53 am)17% (Aug 8, 12:53 pm)29.74 "Hg (Aug 11, 5:53 pm)
Average76 °F60%29.87 "Hg
* Reported Aug 4 9:53 am — Aug 19 9:53 am, Rancho Cucamonga. Weather by CustomWeather, © 2017

Note: Actual official high and low records may vary slightly from our data, if they occured in-between our weather recording intervals... More about our weather records

Advertising

Rancho Cucamonga Weather History for the Previous 24 Hours

Scroll right to see more
 ConditionsComfort  
Time TempWeatherWind HumidityBarometerVisibility
9:53 am
Sat, Aug 19
71 °FSunny.No wind66%29.95 "Hg7 mi
8:53 am67 °FScattered clouds.3 mph79%29.95 "Hg5 mi
7:53 am65 °FBroken clouds.3 mph85%29.95 "Hg5 mi
6:53 am63 °FFog.5 mph93%29.94 "Hg4 mi
6:44 am63 °FFog.5 mph90%29.98 "Hg4 mi
5:53 am63 °FFog.6 mph90%29.92 "Hg5 mi
4:53 am64 °FClear.6 mph87%29.90 "Hg8 mi
3:53 am65 °FClear.7 mph85%29.90 "Hg9 mi
2:53 am66 °FClear.6 mph81%29.89 "Hg10 mi
1:53 am67 °FClear.5 mph76%29.90 "Hg10 mi
12:53 am68 °FClear.5 mph73%29.92 "Hg10 mi
11:53 pm
Fri, Aug 18
70 °FClear.5 mph64%29.92 "Hg10 mi
10:53 pm71 °FClear.6 mph61%29.92 "Hg10 mi
9:53 pm72 °FClear.9 mph61%29.92 "Hg10 mi
8:53 pm74 °FClear.8 mph62%29.91 "Hg10 mi
7:53 pm77 °FClear.10 mph56%29.89 "Hg10 mi
6:53 pm81 °FSunny.10 mph47%29.88 "Hg10 mi
5:53 pm84 °FPassing clouds.12 mph43%29.87 "Hg10 mi
4:53 pm86 °FPassing clouds.13 mph40%29.88 "Hg10 mi
3:53 pm88 °FPassing clouds.15 mph38%29.88 "Hg10 mi
2:53 pm88 °FPassing clouds.14 mph33%29.89 "Hg10 mi
1:53 pm88 °FPassing clouds.9 mph34%29.91 "Hg10 mi
12:53 pm86 °FPassing clouds.12 mph32%29.93 "Hg10 mi
11:53 am83 °FPassing clouds.8 mph37%29.95 "Hg10 mi
Weather by CustomWeather, © 2017

See weather overviewHow to use our weather pages